When you browse on this site, cookies collect data to enhance your experience and personalize the content and advertising you see.
Visit our Privacy Policy to learn more. By continuing to use the site, you agree to this use of cookies and data.

Hourly Weather Bulla Regia

Today, 14 July, Tuesday

Time Temperature Precipitation Wind Pressure Humidity
00:00 +24°C° 0 mm 1 mps 703 mmHg 54%
01:00 +24°C° 0 mm 1 mps 703 mmHg 56%
02:00 +23°C° 0 mm 1 mps 703 mmHg 59%
03:00 +22°C° 0 mm 1 mps 702 mmHg 61%
04:00 +22°C° 0 mm 1 mps 702 mmHg 64%
05:00 +22°C° 0 mm 1 mps 702 mmHg 63%
06:00 +23°C° 0 mm 1 mps 703 mmHg 62%
07:00 +23°C° 0 mm 1 mps 703 mmHg 61%
08:00 +25°C° 0 mm 1 mps 703 mmHg 53%
09:00 +27°C° 0 mm 1 mps 704 mmHg 44%
10:00 +29°C° 0 mm 2 mps 704 mmHg 36%
11:00 +30°C° 0 mm 2 mps 704 mmHg 33%
12:00 +32°C° 0 mm 2 mps 704 mmHg 29%
13:00 +34°C° 0 mm 2 mps 704 mmHg 26%
14:00 +34°C° 0 mm 3 mps 703 mmHg 26%
15:00 +34°C° 0 mm 3 mps 703 mmHg 26%
16:00 +34°C° 0 mm 4 mps 703 mmHg 26%
17:00 +33°C° 0.1 mm 4 mps 703 mmHg 30%
18:00 +30°C° 0.1 mm 4 mps 703 mmHg 34%
19:00 +29°C° 0.1 mm 4 mps 703 mmHg 39%
20:00 +27°C° 0.8 mm 3 mps 703 mmHg 47%
21:00 +25°C° 0.8 mm 2 mps 703 mmHg 55%
22:00 +24°C° 0.8 mm 1 mps 703 mmHg 63%
23:00 +24°C° 0 mm 1 mps 703 mmHg 64%

Tomorrow, 15 July, Wednesday

Time Temperature Precipitation Wind Pressure Humidity
00:00 +23°C° 0 mm 1 mps 703 mmHg 65%
01:00 +23°C° 0 mm 1 mps 702 mmHg 65%
02:00 +21°C° 0 mm 0 mps 702 mmHg 67%
03:00 +21°C° 0 mm 0 mps 702 mmHg 69%
04:00 +20°C° 0 mm 0 mps 702 mmHg 70%
05:00 +21°C° 0 mm 0 mps 702 mmHg 68%
06:00 +24°C° 0 mm 1 mps 702 mmHg 65%
07:00 +24°C° 0 mm 1 mps 703 mmHg 63%
08:00 +26°C° 0 mm 1 mps 703 mmHg 54%
09:00 +29°C° 0 mm 2 mps 704 mmHg 45%
10:00 +31°C° 0 mm 2 mps 704 mmHg 36%
11:00 +33°C° 0 mm 3 mps 704 mmHg 32%
12:00 +35°C° 0 mm 3 mps 704 mmHg 28%
13:00 +36°C° 0 mm 4 mps 704 mmHg 25%
14:00 +34°C° 0 mm 5 mps 704 mmHg 34%
15:00 +32°C° 0 mm 6 mps 703 mmHg 43%
16:00 +29°C° 0 mm 7 mps 703 mmHg 52%
17:00 +28°C° 0 mm 6 mps 703 mmHg 56%
18:00 +27°C° 0 mm 5 mps 703 mmHg 60%
19:00 +25°C° 0 mm 4 mps 703 mmHg 64%
20:00 +24°C° 0 mm 3 mps 704 mmHg 69%
21:00 +23°C° 0 mm 2 mps 705 mmHg 74%
22:00 +22°C° 0 mm 1 mps 705 mmHg 79%
23:00 +22°C° 0 mm 1 mps 705 mmHg 80%

Day after tomorrow, 16 July, Thursday

Time Temperature Precipitation Wind Pressure Humidity
00:00 +21°C° 0 mm 1 mps 705 mmHg 82%
01:00 +21°C° 0 mm 1 mps 704 mmHg 83%
02:00 +20°C° 0 mm 1 mps 704 mmHg 84%
03:00 +20°C° 0 mm 1 mps 704 mmHg 85%
04:00 +20°C° 0 mm 1 mps 703 mmHg 86%
05:00 +20°C° 0 mm 1 mps 704 mmHg 84%
06:00 +21°C° 0 mm 1 mps 704 mmHg 81%
07:00 +21°C° 0 mm 1 mps 704 mmHg 78%
08:00 +23°C° 0 mm 1 mps 705 mmHg 68%
09:00 +25°C° 0 mm 2 mps 705 mmHg 58%
10:00 +27°C° 0 mm 2 mps 705 mmHg 49%
11:00 +29°C° 0 mm 2 mps 705 mmHg 43%
12:00 +30°C° 0 mm 2 mps 706 mmHg 38%
13:00 +32°C° 0 mm 2 mps 706 mmHg 33%
14:00 +33°C° 0 mm 3 mps 705 mmHg 33%
15:00 +33°C° 0 mm 4 mps 705 mmHg 33%
16:00 +33°C° 0 mm 4 mps 704 mmHg 34%
17:00 +30°C° 0 mm 4 mps 704 mmHg 38%
18:00 +28°C° 0 mm 4 mps 704 mmHg 42%
19:00 +26°C° 0 mm 4 mps 704 mmHg 46%
20:00 +25°C° 0 mm 3 mps 704 mmHg 51%
21:00 +24°C° 0 mm 2 mps 704 mmHg 56%
22:00 +21°C° 0 mm 2 mps 704 mmHg 62%
23:00 +22°C° 0 mm 1 mps 704 mmHg 65%

17 July, Friday

Time Temperature Precipitation Wind Pressure Humidity
00:00 +21°C° 0 mm 1 mps 704 mmHg 69%
01:00 +20°C° 0 mm 1 mps 703 mmHg 73%
02:00 +20°C° 0 mm 1 mps 703 mmHg 75%
03:00 +19°C° 0 mm 1 mps 703 mmHg 77%
04:00 +19°C° 0 mm 1 mps 702 mmHg 79%
05:00 +20°C° 0 mm 1 mps 703 mmHg 76%
06:00 +20°C° 0 mm 1 mps 703 mmHg 74%
07:00 +21°C° 0 mm 1 mps 703 mmHg 71%
08:00 +21°C° 0 mm 2 mps 704 mmHg 62%
09:00 +24°C° 0 mm 2 mps 704 mmHg 53%
10:00 +26°C° 0 mm 2 mps 704 mmHg 45%
11:00 +27°C° 0 mm 3 mps 704 mmHg 41%
12:00 +29°C° 0 mm 3 mps 704 mmHg 38%
13:00 +30°C° 0 mm 4 mps 704 mmHg 34%
14:00 +30°C° 0 mm 5 mps 704 mmHg 36%
15:00 +29°C° 0 mm 5 mps 703 mmHg 37%
16:00 +29°C° 0 mm 6 mps 703 mmHg 39%
17:00 +28°C° 0 mm 6 mps 703 mmHg 44%
18:00 +26°C° 0 mm 5 mps 703 mmHg 49%
19:00 +23°C° 0 mm 4 mps 703 mmHg 55%
20:00 +22°C° 0 mm 4 mps 703 mmHg 61%
21:00 +21°C° 0 mm 3 mps 703 mmHg 68%
22:00 +20°C° 0 mm 2 mps 703 mmHg 74%
23:00 +20°C° 0 mm 2 mps 703 mmHg 73%

18 July, Saturday

Time Temperature Precipitation Wind Pressure Humidity
00:00 +21°C° 0 mm 1 mps 703 mmHg 72%
01:00 +21°C° 0 mm 1 mps 703 mmHg 71%
02:00 +20°C° 0 mm 1 mps 703 mmHg 74%
03:00 +20°C° 0 mm 1 mps 702 mmHg 77%
04:00 +18°C° 0 mm 2 mps 702 mmHg 80%
05:00 +19°C° 0 mm 2 mps 702 mmHg 77%
06:00 +19°C° 0 mm 2 mps 703 mmHg 75%
07:00 +19°C° 0 mm 2 mps 703 mmHg 72%
08:00 +21°C° 0 mm 2 mps 703 mmHg 63%
09:00 +24°C° 0 mm 3 mps 704 mmHg 54%
10:00 +26°C° 0 mm 4 mps 704 mmHg 45%
11:00 +27°C° 0 mm 4 mps 704 mmHg 41%
12:00 +28°C° 0 mm 5 mps 704 mmHg 37%
13:00 +29°C° 0 mm 6 mps 704 mmHg 34%
14:00 +29°C° 0 mm 7 mps 704 mmHg 37%
15:00 +28°C° 0 mm 7 mps 703 mmHg 40%
16:00 +28°C° 0 mm 7 mps 703 mmHg 43%
17:00 +26°C° 0 mm 7 mps 703 mmHg 49%
18:00 +24°C° 0 mm 6 mps 703 mmHg 56%
19:00 +22°C° 0 mm 6 mps 703 mmHg 62%
20:00 +21°C° 0 mm 4 mps 703 mmHg 69%
21:00 +20°C° 0 mm 3 mps 703 mmHg 76%
22:00 +19°C° 0 mm 2 mps 704 mmHg 82%
23:00 +20°C° 0 mm 1 mps 704 mmHg 84%

19 July, Sunday

Time Temperature Precipitation Wind Pressure Humidity
00:00 +20°C° 0 mm 1 mps 703 mmHg 85%
01:00 +19°C° 0 mm 1 mps 703 mmHg 86%
02:00 +19°C° 0 mm 1 mps 703 mmHg 87%
03:00 +18°C° 0 mm 1 mps 703 mmHg 88%
04:00 +18°C° 0 mm 1 mps 703 mmHg 89%
05:00 +19°C° 0 mm 1 mps 703 mmHg 86%
06:00 +19°C° 0 mm 1 mps 703 mmHg 82%
07:00 +20°C° 0 mm 1 mps 703 mmHg 78%
08:00 +21°C° 0 mm 2 mps 704 mmHg 69%
09:00 +23°C° 0 mm 2 mps 704 mmHg 60%
10:00 +25°C° 0 mm 2 mps 705 mmHg 51%
11:00 +27°C° 0 mm 3 mps 705 mmHg 45%
12:00 +28°C° 0 mm 3 mps 705 mmHg 40%
13:00 +30°C° 0 mm 3 mps 705 mmHg 34%
14:00 +30°C° 0 mm 4 mps 705 mmHg 34%
15:00 +30°C° 0 mm 4 mps 705 mmHg 34%
16:00 +30°C° 0 mm 5 mps 705 mmHg 35%
17:00 +29°C° 0 mm 5 mps 705 mmHg 40%
18:00 +28°C° 0 mm 5 mps 704 mmHg 44%
19:00 +26°C° 0 mm 4 mps 704 mmHg 49%
20:00 +25°C° 0 mm 3 mps 705 mmHg 57%
21:00 +23°C° 0 mm 2 mps 705 mmHg 64%
22:00 +21°C° 0 mm 1 mps 705 mmHg 72%
23:00 +21°C° 0 mm 1 mps 705 mmHg 74%
Show more